User: anonymous   Login
Location: Unspecified
(0.0000°N, 0.0000°E)
Time: 17:26:04
(UTC+00:00)
Language:

Tiangong 1 - Orbit

View from above orbital plane
View from above orbital plane
View from above satellite
View from above satellite

Ground track
Ground track

The orbit data is extracted from the following two-line orbital elements,

1 37820U 11053A   16122.20277873  .00016088  00000-0  18498-3 0  9994
2 37820  42.7631 168.1167 0011918  75.3071 332.4131 15.61675296263239
Epoch (UTC): 01 May 2016 04:52:00
Eccentricity: 0.0011918
inclination: 42.7631°
perigee height: 375 km
apogee height: 391 km
right ascension of ascending node: 168.1167°
argument of perigee: 75.3071°
revolutions per day: 15.61675296
mean anomaly at epoch: 332.4131°
orbit number at epoch: 26323

The dashed part of the orbit path shows where the satellite is in the earth's shadow,  

DLR